MIDAS 4 DEB, 27478

Orbit data source: Space-Track

MIDAS 4 DEB, 27478 is space debris in LEO originally from a launch on Sat, 21 Oct 1961 UTC launched from the Air Force Western Test Range (AFWTR). Debris objects in space refer to the collection of defunct objects orbiting the Earth. Examples of debris include non-operational satellites, rocket bodies, and fragments generated from explosions, collisions, or faulty payload assembly.

Loading next visibility...
MIDAS 4 DEB details
Identifier
27478, 1961-028H
Orbit
LEO
Last TLE update3 days ago
Origin
Flag of USUSAF SSD (US)
ManufacturerUnknown
MissionSpacecraft
Bus & MotorUnknown
MassUnknown
Launch date (UTC)
1961-10-21 (63 years ago)
Launch vehicleUnknown
Launch site
Air Force Western Test Range (AFWTR)
Object type
Payload
Rocket body
Debris
Shape & HBRUnknown
Radar Cross SectionMedium (>0.1 m² and <1 m²)

Expand to show TLE details & history

TLE from 3 days ago
0 MIDAS 4 DEB
1 27478U 61028H   24353.27719851 -.00000051  00000-0 -21321-1 0  9990
2 27478  95.8715 103.5830 0292377 144.5322 241.7417  8.66685499727784
Epoch: 2024-12-18T06:39Z
Definitive object data (Epoch: 2024-12-18T06:39:09.951Z)
Latitude23.25688°
Longitude-86.10549°
Altitude3,780.538 km
Speed6.221 km/s
True Right ascension06h 44m 14s
True Declination23° 10' 10"
Sunlit
Object was in full shadow at TLE epoch
Visualization TLE readout
Latitude59.59661°
Longitude-92.95251°
Altitude3,590.713 km
Speed6.345 km/s
Apparent Right ascension02h 58m 38s
Apparent Declination35° 30' 22"
Sunlit
Object is in full shadow
Visualization observer readout
Local Sidereal Time11:31:45
Azimuth320.275° NNW
Elevation-0.809°
Doppler factor1
Orbital elements
Apogee altitude3,923.769 km
Perigee altitude3,338.473 km
Semi-major axis10,009.258 km
Eccentricity0.0292377
Inclination95.8715°
RAAN103.583°
Arg. of periapsis144.5322°
True anomaly238.84206°
Mean anomaly241.7417°
Eccentric anomaly240.28676°
Mean motion2.16741 °/min
BSTAR-0.021321
Orbital period166.1 mins
Loading maneuver chart data...
Loading historical data...
Loading historical data...
Loading historical data...
Loading historical data...
Loading historical data...
Loading historical data...
Loading historical data...

MIDAS 4 DEB Visibility forecast

Observer location: undefined°, undefined

Span
Click to sort rows by Start time (UTC) header in descending order
Start Az.
Max El. time (UTC)
Max El. Az.
Max El.
End time (UTC)
End Az.
31 mins2024-12-21 18:22:56.664Z18.441° NNE2024-12-21 18:37:56.664Z84.043° E34.2°2024-12-21 18:53:56.664Z155.346° SSE
30 mins2024-12-21 21:07:56.664Z2.096° NNE2024-12-21 21:21:56.664Z295.583° NW39.412°2024-12-21 21:37:56.664Z221.882° SW
10 mins2024-12-21 23:54:56.664Z343.411° N2024-12-21 23:58:56.664Z328.552° NNW12.834°2024-12-22 00:04:56.664Z306.248° NW
26 mins2024-12-22 04:50:56.664Z99.411° ESE2024-12-22 05:03:56.664Z49.98° ENE26.253°2024-12-22 05:16:56.664Z1.098° NNE
36 mins2024-12-22 07:25:56.664Z169.489° S2024-12-22 07:43:56.664Z256.498° W44.858°2024-12-22 08:01:56.664Z350.275° N
22 mins2024-12-22 10:19:56.664Z248.027° W2024-12-22 10:30:56.664Z286.858° WNW18.533°2024-12-22 10:41:56.664Z326.779° NNW
|